Location: Newark
(35.6799°N, 139.7636°E)
Time: 23:43:01
(UTC+00:00)

Vanguard 1 Rocket - Pass Details

Date: 19 December 2019
Orbit: 650 x 4226 km, 34.3° (Epoch: 20 January)

Event Time Altitude Azimuth Distance (km) Brightness Sun altitude
Rises 10:54:59 0° 259° (W) 8,423 13.2 -40.7°
Reaches altitude 10° 11:01:11 10° 260° (W) 7,214 12.6 -41.9°
Enters shadow 11:23:55 84° 203° (SSW) 2,798 9.5 -46.5°
